Location: Vihti�l�
(61.3833°N, 23.0667°E)
Time: 03:54:13
(UTC+00:00)

Cosmos 2341 Rocket - Pass Details

Date: 29 November 2020
Orbit: 969 x 1003 km, 82.9° (Epoch: 19 January)

Event Time Altitude Azimuth Distance (km) Brightness Sun altitude
Rises 05:28:04 0° 198° (SSW) 3,655 7.1 -10.7°
Reaches altitude 10° 05:30:34 10° 200° (SSW) 2,712 6.4 -10.4°
Maximum altitude 05:36:47 77° 287° (WNW) 1,005 4.0 -9.7°
Drops below altitude 10° 05:43:04 10° 13° (NNE) 2,740 6.2 -9.1°
Sets 05:45:37 0° 15° (NNE) 3,696 6.9 -8.8°
